Location: Le Hiès Ruisseau
(43.3000°N, 0.4500°W)
Time: 01:54:10
(UTC+00:00)

Lacrosse 5 - Pass Details

Date: 28 January 2023
Orbit: 714 x 724 km, 57.0° (Epoch: 09 March)

Event Time Altitude Azimuth Distance (km) Brightness Sun altitude
Rises 20:17:16 0° 234° (SW) 3,125 5.7 -34.4°
Reaches altitude 10° 20:19:39 10° 236° (WSW) 2,208 4.9 -34.9°
Enters shadow 20:21:35 23° 241° (WSW) 1,500 3.9 -35.2°
